Weather in Tair

Russia / Mari El Republic     56°16′05″N   47°50′49″E
temp.,
°C
wind,
m/s
gust,
m/s
humid.,
%
clouds,
%
prec.,
mm/h
press.,
hPa
HPBL,
m
1 march, mon
mon100:00−17nw239896 0.1 101827
03:00−19nw239990 0.1 101924
06:00−21nnw2210081 0.0 102020
09:00−16wnw129462 0.0 1021160
12:00−11w238992 0.0 1021413
15:00−9wsw349396 0.1 1019414
18:00−12sw379698 0.0 1017186
21:00−8sw4109499 0.1 1014391
2 march, tue
tue200:00−5sw51295100 1.6 1009626
03:00−3sw61396100 3.5 1006678
06:00−1wsw51296100 1.4 1001612
09:00+1w51198100 2.1 1000672
12:000w510100100 0.4 998697
15:000wnw510100100 0.6 998758
18:00−1wnw4119083 0.2 999595
21:00−4wnw3109387 0.2 1000351
3 march, wed
wed300:00−3wnw399598 0.1 1000459
03:00−4wnw499597 0.2 1001403
06:00−6wnw4109596 0.1 1001435
09:00−6nw589198 0.2 1003639
12:00−4nw5889100 0.2 1004783
15:00−5wnw5890100 0.4 1005855
18:00−6wnw3993100 0.1 1005684
21:00−8w399499 0.2 1006304
4 march, thu
thu400:00−7wsw399695 0.3 1005392
03:00−6w3109597 0.6 1004391
06:00−7wsw379699 0.1 1003221
09:00−5sw4109499 0.3 1001482
12:00−2sw61195100 0.3 998821
15:00−1sw71395100 1.9 995988
18:000wsw61295100 1.2 992982
21:00−1wsw51196100 1.6 991793
5 march, fri
fri500:00−1w41093100 0.4 990710
03:00−6wnw61385100 0.6 993855
06:00−9wnw6138996 0.1 998884
09:00−8wnw5109098 0.1 1003659
12:00−6wnw5888100 0.1 1006799
15:00−5wnw478495 0.1 1009896
18:00−10wsw239365 0.0 101042
21:00−10w379681 0.1 1013167